If you wish to contribute or participate in the discussions about articles you are invited to join SKYbrary as a registered user

 Actions

Catania-Fontanarossa Airport

From SKYbrary Wiki

LICC
Airport
ICAO: LICC – IATA: CTA
Summary
Name Catania-Fontanarossa Airport
Region Europe
Territory Italy IT.gif
Location Catania, Sicilia
Serving Catania
Elevation 11.887 m
39 ft
39 ft11.887 m
Type large airport
Coordinates 37° 28' 0.41" N, 15° 3' 59.04" E
Runways
Designator Length Width Surface ROPS
8/26 2435 m7,988.845 ft
45 m147.638 ft
ASP yes/yes


METAR
Observation LICC 070650Z 23005KT 9999 FEW060 BKN090 14/12 Q1024
Station Catania / Fontanarossa
Date/Time 07 April 2020 06:50:00
Wind direction 230°
Wind speed 05 kts
Lowest cloud amount few clouds
Temperature 14°C
Dew point 12°C
Humidity 87%
QNH 1024 hPa
Weather condition n/a

Maps

Terrain

Loading map...

Airport Layout

Loading map...


Accidents & Serious Incidents at or in vicinity of LICC

None on SKYbrary